Printer-friendly version

IAU Minor Planet Center

Minor Planet Center

MPEC 2006-U04 : 2006 UE

The following Minor Planet Electronic Circular may be linked-to from your own Web pages, but must not otherwise be redistributed electronically.


Read MPEC 2006-U03 Read MPEC 2006-U05


M.P.E.C. 2006-U04                                Issued 2006 Oct. 17, 13:17 UT

     The Minor Planet Electronic Circulars contain information on unusual
         minor planets and routine data on comets.  They are published
   on behalf of Commission 20 of the International Astronomical Union by the
          Minor Planet Center, Smithsonian Astrophysical Observatory,
                          Cambridge, MA 02138, U.S.A.

             Prepared using the Tamkin Foundation Computer Network

                              MPC@CFA.HARVARD.EDU
          URL http://cfa-www.harvard.edu/iau/mpc.html  ISSN 1523-6714

                                    2006 UE

Observations:
     K06U00E* C2006 10 16.20569 00 21 06.69 +00 57 21.6          20.0 V EU004703
     K06U00E  C2006 10 16.21209 00 21 07.05 +00 57 35.4          20.2 V EU004703
     K06U00E  C2006 10 16.21850 00 21 07.34 +00 57 47.7          20.4 V EU004703
     K06U00E  C2006 10 16.22490 00 21 07.77 +00 58 01.4          20.4 V EU004703
     K06U00E  C2006 10 16.27076 00 21 10.07 +00 59 38.9          19.7 V EU004703
     K06U00E  C2006 10 16.27855 00 21 10.50 +00 59 53.8          20.0 V EU004703
     K06U00E  C2006 10 16.28634 00 21 10.95 +01 00 11.6          21.4 V EU004703
     K06U00E  C2006 10 16.84853 00 21 51.16 +01 19 59.2          20.3 V EU004A44
     K06U00E  C2006 10 16.85764 00 21 51.71 +01 20 17.6          20.0 V EU004A44
     K06U00E  C2006 10 16.87058 00 21 52.47 +01 20 45.7          20.2 V EU004A44
     K06U00E  C2006 10 16.93990 00 21 57.07 +01 23 13.1                 EU004J95
     K06U00E  C2006 10 16.94740 00 21 57.52 +01 23 28.1                 EU004J95
     K06U00E  C2006 10 16.95491 00 21 57.97 +01 23 44.4          20.4 R EU004J95
     K06U00E  C2006 10 17.24232 00 22 18.52 +01 34 12.2          20.5 R EU004854
     K06U00E  C2006 10 17.25190 00 22 19.15 +01 34 33.9          20.5 R EU004854
     K06U00E  C2006 10 17.26148 00 22 19.67 +01 34 54.0          20.4 R EU004854

Observer details:
703 Catalina Sky Survey.  Observer R. A. Kowalski.  Measurers E. C. Beshore,
    E. J. Christensen, G. J. Garradd, A. R. Gibbs, A. D. Grauer, R. E. Hill,
    R. A. Kowalski, S. M. Larson, R. H. McNaught.  0.68-m Schmidt + CCD.
854 Sabino Canyon Observatory, Tucson.  Observer J. E. McGaha.  0.36-m f/10.0
    Schmidt-Cassegrain + CCD.
A44 Altschwendt.  Observer W. Ries.  0.45-m f/3.6 reflector + CCD.
J95 Great Shefford.  Observer P. Birtwhistle.  0.40-m f/6.0 Schmidt-Cassegrain
    + CCD.

Orbital elements:
2006 UE                                                  Earth MOID = 0.1848 AU
Epoch 2006 Sept. 22.0 TT = JDT 2454000.5                MPC
M 349.23579              (2000.0)            P               Q
n   0.26793177     Peri.   12.37814     +0.82275140     -0.56760424
a   2.3829773      Node    22.28651     +0.51449845     +0.72117988
e   0.5055177      Incl.    4.55121     +0.24160192     +0.39714607
P   3.68           H   22.7           G   0.15           U   9
Residuals in seconds of arc
061016 703  0.4+  0.6+    061016 703  0.3-  0.0     061016 J95  0.3+  0.2-
061016 703  0.6+  0.9+    061016 A44  0.9-  0.7+    061017 854  1.0-  0.6-
061016 703  0.2-  0.4-    061016 A44  0.7-  0.4-    061017 854  0.4+  0.5+
061016 703  1.1+  0.2-    061016 A44  0.7-  0.0     061017 854  0.1+  0.0
061016 703  1.0-  0.2+    061016 J95  0.1+  0.6+
061016 703  0.8-  1.3-    061016 J95  0.2+  0.4-

Ephemeris:
2006 UE                  a,e,i = 2.38, 0.51, 5                   q = 1.1783
Date    TT    R. A. (2000) Decl.     Delta      r     Elong.  Phase     V
2006 10 12    00 16.71   -01 24.5    0.208    1.200   164.6    12.8    20.4
2006 10 22    00 28.55   +04 31.2    0.199    1.184   159.9    16.8    20.5
2006 11 01    00 45.66   +11 03.6    0.200    1.178   155.9    20.2    20.6
2006 11 11    01 07.83   +17 18.7    0.214    1.184   152.4    22.8    20.8
2006 11 21    01 33.59   +22 29.8    0.238    1.199   149.4    24.8    21.1
2006 12 01    02 01.32   +26 18.7    0.275    1.225   146.5    26.4    21.5
2006 12 11    02 29.45   +28 50.4    0.323    1.259   143.4    27.8    22.0

Timothy B. Spahr             (C) Copyright 2006 MPC           M.P.E.C. 2006-U04

Read MPEC 2006-U03 Read MPEC 2006-U05


Our Web policy. Index to the CBAT/MPC/ICQ pages.


Valid HTML 4.01!